Regional Weather Roundup
Issued by NWS

Home | Current Version | Previous Version | Text Only | Print | Product List | Glossary Off
Versions: 1 2 3 4 5 6 7 8 9 10 11 12 13 14 15 16 17 18 19 20 21 22 23 24 25 26 27 28 29 30 31 32 33 34 35 36 37 38 39 40 41 42 43 44 45 46 47 48 49 50

000
ASUS43 KOAX 182302
RWRNE

WEATHER ROUNDUP FOR NEBRASKA
NATIONAL WEATHER SERVICE OMAHA NE
600 PM CDT FRI AUG 18 2017

NOTES: SATELLITE DATA IS BEING USED TO AUGMENT CLOUD COVER ABOVE
       12000 FEET.
       "FAIR" INDICATES FEW OR NO CLOUDS BELOW 12,000 FEET WITH NO
       SIGNIFICANT WEATHER AND/OR OBSTRUCTIONS TO VISIBILITY.


NEZ001>004-019>022-054>056-190000-
NEBRASKA PANHANDLE

CITY           SKY/WX    TMP DP  RH WIND       PRES   REMARKS
SCOTTSBLUFF    SUNNY     89  41  18 NW3       30.04F
ALLIANCE       SUNNY     85  42  22 SW6       30.03F
CHADRON        SUNNY     90  39  16 NW6       29.98F
GORDON         FAIR      84  47  27 NE7       30.02F
KIMBALL        SUNNY     84  48  28 S12       30.11F
SIDNEY         SUNNY     86  40  19 VRB3      30.09F
$$

NEZ057>060-069>072-079>082-190000-
SOUTHWEST NEBRASKA

CITY           SKY/WX    TMP DP  RH WIND       PRES   REMARKS
NORTH PLATTE   SUNNY     87  55  33 W6        29.99F
IMPERIAL       SUNNY     87  40  19 E3        30.04F
LEXINGTON      SUNNY     86  59  39 SW3       29.98S
MCCOOK         SUNNY     88  51  28 SE7       30.00S
OGALLALA       SUNNY     86  54  32 SW3       30.03F
$$

NEZ005>010-023>029-035>040-094-190000-
NORTH CENTRAL NEBRASKA

CITY           SKY/WX    TMP DP  RH WIND       PRES   REMARKS
VALENTINE      SUNNY     87  46  24 N9        29.98F
AINSWORTH      SUNNY     80  58  46 NE6       29.99S
BROKEN BOW     MOSUNNY   90  47  22 NW12      29.96S
O`NEILL        SUNNY     81  63  54 N5        29.96S
ORD            SUNNY     86  57  37 VRB3      29.92S
THEDFORD       MOSUNNY   86  52  30 N8        30.00S
$$

NEZ041-046>049-061>064-073>077-083>087-190000-
SOUTH CENTRAL NEBRASKA

CITY           SKY/WX    TMP DP  RH WIND       PRES   REMARKS
GRAND ISLAND   SUNNY     87  60  40 W3        29.95S
AURORA         SUNNY     84  63  48 W3        29.95S
HASTINGS       SUNNY     85  60  42 SW3       29.97S
HEBRON         SUNNY     86  64  48 CALM      29.93F
HOLDREGE       SUNNY     83  53  34 CALM      29.98F
KEARNEY        SUNNY     85  62  46 S7        29.97S
YORK           SUNNY     82  68  61 CALM      29.94S
$$

NEZ011>018-030>034-042>045-190000-
NORTHEAST NEBRASKA

CITY           SKY/WX    TMP DP  RH WIND       PRES   REMARKS
NORFOLK        SUNNY     84  65  52 NW9       29.89S
ALBION         SUNNY     86  61  43 N6        29.92S
BLAIR          SUNNY     82  67  59 SW8       29.90S
COLUMBUS       SUNNY     84  66  54 NW6       29.92S
TEKAMAH        SUNNY     83  67  58 SW6       29.88S
WAYNE          SUNNY     82  65  58 NW7       29.90R
$$

NEZ050>053-065>068-078-088>093-190000-
SOUTHEAST NEBRASKA

CITY           SKY/WX    TMP DP  RH WIND       PRES   REMARKS
LINCOLN        SUNNY     85  64  49 VRB3      29.91F
OMAHA EPPLEY   MOSUNNY   87  64  46 W7        29.88S
BEATRICE       SUNNY     87  66  49 N3        29.91F
FALLS CITY     SUNNY     85  65  51 N5        29.89F
NEBRASKA CITY  SUNNY     84  65  51 CALM      29.91S
PLATTSMOUTH    MOSUNNY   83  64  52 SW7       29.90S
$$

NEZ044-045-051>053-067-190000-
OMAHA AREA

CITY           SKY/WX    TMP DP  RH WIND       PRES   REMARKS
OMAHA EPPLEY   MOSUNNY   87  64  46 W7        29.88S
BLAIR          SUNNY     82  67  59 SW8       29.90S
MILLARD        SUNNY     85  67  53 SW6       29.89S
OFFUTT AFB     SUNNY     86  62  43 W10       29.88F
PLATTSMOUTH    MOSUNNY   83  64  52 SW7       29.90S
WAHOO          FAIR      83  66  57 W6        29.90S
$$




USA.gov is the U.S. government's official web portal to all federal, state and local government web resources and services.